Satellite-Ground Cal/Val Region Overpasses Predictions

Prediction of Satellite NPP Overpassing Cal/Val Region: PacNW

Region Location: (Latitude: 10.00, Longitude: 139.50) to (Latitude: 22.70, Longitude: 165.60).

Table of predicted overpasses for the next 14.0 days since TLE Epoch: 3/11/2014
Interval Starting Time Starting Location Ending Time Ending Location
1 03/11/2014 15:52:54 ( 22.66, 147.65) 03/11/2014 15:56:29 ( 10.04, 144.63)
2 03/12/2014 03:01:59 ( 10.01, 155.15) 03/12/2014 03:05:35 ( 22.69, 152.12)
3 03/12/2014 15:33:53 ( 22.66, 152.41) 03/12/2014 15:37:28 ( 10.04, 149.39)
4 03/13/2014 02:42:57 ( 10.01, 159.91) 03/13/2014 02:46:33 ( 22.69, 156.88)
5 03/13/2014 15:14:51 ( 22.65, 157.17) 03/13/2014 15:18:26 ( 10.04, 154.15)
6 03/14/2014 02:23:56 ( 10.02, 164.67) 03/14/2014 02:27:32 ( 22.70, 161.64)
7 03/14/2014 14:55:50 ( 22.65, 161.93) 03/14/2014 14:59:25 ( 10.03, 158.91)
8 03/15/2014 03:46:24 ( 10.03, 144.05) 03/15/2014 03:49:59 ( 22.65, 141.04)
9 03/15/2014 14:38:04 ( 18.18, 165.59) 03/15/2014 14:40:23 ( 10.02, 163.68)
10 03/15/2014 16:18:17 ( 22.69, 141.33) 03/15/2014 16:20:25 ( 15.18, 139.50)
11 03/16/2014 03:27:23 ( 10.04, 148.81) 03/16/2014 03:30:58 ( 22.66, 145.80)
12 03/16/2014 15:59:16 ( 22.68, 146.09) 03/16/2014 16:02:52 ( 10.01, 143.06)
13 03/17/2014 03:08:22 ( 10.05, 153.57) 03/17/2014 03:11:57 ( 22.67, 150.56)
14 03/17/2014 15:40:14 ( 22.67, 150.85) 03/17/2014 15:43:49 ( 10.05, 147.83)
15 03/18/2014 02:49:19 ( 10.01, 158.35) 03/18/2014 02:52:55 ( 22.69, 155.32)
16 03/18/2014 15:21:13 ( 22.66, 155.61) 03/18/2014 15:24:48 ( 10.04, 152.59)
17 03/19/2014 02:30:18 ( 10.02, 163.11) 03/19/2014 02:33:53 ( 22.64, 160.09)
18 03/19/2014 15:02:11 ( 22.65, 160.37) 03/19/2014 15:05:46 ( 10.03, 157.35)
19 03/20/2014 02:14:00 ( 19.67, 165.59) 03/20/2014 02:14:51 ( 22.66, 164.85)
20 03/20/2014 03:52:46 ( 10.04, 142.49) 03/20/2014 03:56:19 ( 22.54, 139.51)
21 03/20/2014 14:43:09 ( 22.69, 165.14) 03/20/2014 14:46:45 ( 10.01, 162.11)
22 03/20/2014 16:24:39 ( 22.68, 139.77) 03/20/2014 16:24:57 ( 21.63, 139.50)
23
